Wind_Speed
21 20 18 17 16 16 16 15 15 14 13 12 10 8 6 6 5 4 4 3 3 3 3 3 4 4 5 7 8 9 11 9 9 10 8 1 4 2 2 1 2 2 4 6 9 10 8 10 10 11 10 9 8 8 10 10 8 7 6 7 8 8 9 9 11 7 8 13 1 6 1 3 6 2 6 7 17 18 19 17 15 18 17 17 14 10 11 14
22 21 19 17 16 16 16 15 15 15 13 11 9 7 5 5 4 3 3 3 3 3 3 4 4 6 7 8 9 10 11 10 12 10 2 3 2 2 2 1 2 3 4 6 10 10 9 9 8 10 8 7 7 8 9 9 9 8 6 7 8 9 11 11 12 9 8 11 3 7 1 2 7 8 10 11 14 17 16 13 12 17 17 16 13 11 14 18
22 21 19 17 16 16 16 16 16 16 14 11 9 6 5 4 3 3 3 2 3 3 4 4 5 7 8 9 10 10 10 10 10 3 5 4 4 4 2 2 2 4 6 10 14 13 11 9 7 8 8 7 7 9 10 9 9 8 7 7 8 12 13 14 14 7 1 8 6 6 2 2 6 10 11 14 16 17 14 8 9 14 15 14 12 13 16 20
22 21 19 17 16 16 16 15 16 16 15 12 9 6 4 3 3 3 3 2 3 3 4 5 7 8 9 10 10 9 8 9 3 6 5 4 5 3 2 1 3 6 9 14 17 14 10 10 9 7 8 8 7 9 9 8 6 6 8 8 11 12 12 16 12 4 3 6 9 3 2 0 9 13 12 12 12 13 9 6 9 12 14 13 12 13 16 18
23 21 19 17 16 16 16 16 16 17 16 14 9 6 4 3 3 3 3 3 3 3 5 6 8 10 11 11 9 7 7 5 4 7 5 6 4 2 2 3 5 7 10 15 15 10 7 9 9 7 7 8 8 8 8 9 8 7 9 12 15 12 13 12 4 3 2 1 7 4 2 4 14 15 14 14 11 7 5 7 10 12 12 13 13 14 15 16
23 21 18 16 16 15 16 16 17 17 17 15 10 5 3 3 3 3 3 3 3 4 6 7 10 12 12 12 8 4 6 1 6 6 6 4 2 1 2 4 6 7 9 14 13 8 7 9 8 8 7 7 11 9 8 10 9 8 8 12 14 10 11 8 4 1 1 2 5 5 5 6 16 16 14 16 13 8 7 9 12 13 13 13 12 13 15 15
23 21 18 16 15 15 16 17 18 19 18 16 10 5 3 2 3 3 3 4 4 5 6 8 12 13 13 12 6 5 7 3 8 7 6 2 1 0 3 4 6 8 10 14 12 8 7 8 8 8 8 8 11 10 10 12 11 10 8 10 10 6 11 7 6 3 5 3 6 5 5 8 17 15 13 15 14 11 10 11 13 14 15 14 11 12 15 16
24 21 19 16 15 15 16 17 19 20 19 16 10 5 2 2 4 3 4 4 4 6 6 9 12 14 15 10 6 7 4 7 10 8 4 1 1 2 4 6 9 11 13 13 8 7 6 7 9 7 9 10 9 10 10 10 10 8 10 12 5 6 12 4 7 2 3 4 3 3 3 11 18 15 14 14 12 11 11 12 13 13 14 14 14 14 13 15
24 22 19 16 14 14 16 18 20 21 19 15 9 4 2 2 4 3 4 4 5 6 7 10 11 14 15 7 8 6 3 9 9 8 4 2 2 4 6 9 11 12 13 7 4 8 4 6 8 5 9 9 8 9 4 4 7 7 14 12 1 8 11 1 4 1 3 2 0 1 3 9 15 15 13 13 12 12 13 12 12 12 13 13 14 14 10 13
24 23 20 17 14 14 16 18 21 22 18 13 8 4 2 2 3 3 4 4 6 7 8 11 12 14 11 7 10 4 5 5 6 8 5 3 4 6 8 8 7 10 10 3 4 7 4 7 8 6 9 6 5 8 1 1 7 8 14 9 1 9 5 4 3 4 4 4 3 4 5 5 9 12 8 11 13 12 13 11 10 10 11 11 11 10 7 11
24 23 21 18 15 14 15 18 21 22 17 11 7 3 1 1 3 4 4 5 7 8 10 12 13 14 10 11 8 2 2 2 3 6 4 3 5 6 8 6 5 9 9 4 4 4 6 10 9 6 6 4 3 6 1 3 7 9 10 7 3 5 2 2 7 5 5 4 3 3 5 4 7 11 9 10 11 12 13 11 10 9 9 9 9 8 6 11
24 24 22 19 16 14 15 17 20 21 15 9 6 3 1 1 3 3 4 6 7 9 11 13 14 13 10 10 3 4 1 1 1 1 3 3 7 7 6 5 5 8 10 9 3 2 5 7 8 8 3 5 5 3 4 4 6 10 5 4 3 3 2 8 9 7 6 5 4 3 5 3 7 12 13 10 9 12 13 10 10 8 6 6 7 8 9 14
24 24 23 21 18 15 15 16 19 20 14 8 5 2 1 2 3 3 5 6 8 10 12 14 14 11 9 5 6 3 3 2 3 1 4 4 7 7 2 3 5 7 7 9 8 4 4 6 8 9 4 5 5 3 3 1 5 9 4 5 5 4 6 7 5 8 7 4 5 3 3 4 8 14 16 11 8 11 11 9 8 5 5 4 5 9 11 13
23 23 23 21 19 17 15 16 18 19 13 7 5 2 1 2 3 4 6 7 8 10 11 14 15 9 7 1 7 3 2 3 4 5 4 3 7 8 5 3 5 6 5 6 7 3 5 7 8 7 2 3 6 4 4 2 3 6 5 5 6 5 6 5 2 5 6 3 4 4 3 2 7 12 16 14 9 9 8 7 8 5 4 4 5 9 10 12
23 23 23 22 19 17 15 15 17 17 11 7 4 2 2 3 3 4 7 7 8 10 12 15 13 7 5 2 6 6 5 7 5 3 2 5 7 6 7 4 4 4 4 5 7 5 5 8 8 7 4 3 4 3 3 2 3 5 4 5 4 4 4 6 2 4 7 4 4 6 3 3 5 8 12 16 14 10 5 3 5 3 4 7 8 9 10 11
23 23 23 22 20 17 16 14 16 16 11 6 3 3 2 4 5 6 8 9 10 11 10 11 10 10 5 2 7 6 7 5 1 2 2 4 8 6 1 4 3 2 3 5 5 5 7 8 6 8 2 3 4 3 2 3 4 4 4 4 4 3 3 4 3 5 7 1 5 5 2 1 5 6 7 12 16 16 8 2 4 1 2 6 7 9 10 11
23 23 23 23 20 17 16 13 15 15 9 5 4 3 4 5 7 8 10 11 11 11 10 12 12 9 4 2 6 5 4 1 2 3 2 2 5 5 3 7 4 4 4 4 5 6 8 6 4 4 2 2 4 2 1 3 3 3 5 5 3 3 4 4 4 4 5 4 3 5 2 3 4 5 4 6 12 16 14 11 8 3 2 4 7 9 10 10
24 23 24 23 20 18 15 13 14 13 8 5 4 4 6 9 11 12 12 10 7 8 11 13 12 6 2 3 2 0 3 3 2 3 3 1 3 2 3 5 2 5 7 5 5 7 7 4 3 3 1 3 4 4 2 1 3 5 4 4 3 7 6 6 3 5 6 7 6 8 5 4 5 3 3 4 7 9 13 14 13 10 8 8 9 9 9 11
24 24 24 23 21 18 15 12 12 12 8 5 4 6 8 10 11 12 14 12 6 4 5 5 6 2 4 3 1 2 3 1 5 4 4 3 2 3 4 2 0 5 8 5 5 6 5 3 3 2 2 3 4 3 4 3 4 6 3 3 1 7 5 4 3 5 5 8 7 8 3 3 1 2 3 5 5 4 9 11 11 13 12 8 9 9 9 11
24 24 24 23 21 18 14 11 10 10 8 5 6 8 8 6 4 6 10 11 5 4 5 3 4 3 4 2 3 2 2 7 7 3 1 1 3 6 6 5 4 5 6 4 4 4 4 4 1 1 5 5 5 5 7 7 5 4 2 4 5 5 2 5 6 4 5 6 7 6 4 2 3 3 5 6 6 5 6 8 7 8 9 7 8 8 9 10
24 24 24 22 20 17 12 9 9 7 7 7 8 8 4 5 3 3 5 4 2 4 4 4 5 3 5 5 5 3 6 7 3 1 2 2 8 8 6 6 6 4 3 2 1 1 1 4 3 4 6 5 3 1 4 8 8 5 5 7 6 6 6 6 7 4 7 8 7 7 6 5 6 7 7 7 8 7 7 7 8 8 8 8 8 9 10 9
24 23 23 22 19 16 10 8 8 6 6 7 10 7 5 9 7 7 8 6 2 2 3 1 5 3 4 4 3 3 7 5 2 2 3 4 9 7 3 3 4 2 0 3 1 5 2 5 4 3 2 3 4 1 2 6 10 7 6 8 8 9 10 9 8 7 6 5 5 5 3 4 7 8 7 8 7 7 8 8 8 8 8 8 9 10 9 10
24 23 22 20 18 15 10 6 6 6 8 8 7 5 8 9 10 10 8 8 4 5 6 3 5 2 4 2 0 3 9 5 1 4 6 7 9 6 4 4 5 2 0 4 0 5 1 4 1 3 2 2 2 2 4 4 8 9 8 8 8 8 8 6 7 8 8 6 4 4 5 5 6 7 7 8 8 7 8 8 7 7 7 7 10 11 10 11
23 22 21 19 17 14 11 9 7 5 6 8 5 7 10 9 10 12 8 7 6 4 2 1 2 1 3 2 2 6 8 4 3 5 7 7 8 5 6 6 4 2 1 2 2 4 6 2 3 2 2 3 2 2 5 4 5 7 7 7 5 6 7 6 6 8 9 8 6 5 5 4 5 8 7 7 9 8 7 6 6 6 6 6 9 9 9 10
23 21 20 18 16 14 14 12 7 4 5 5 5 7 9 9 10 11 6 5 5 3 5 2 4 1 4 2 5 6 6 2 1 6 6 6 7 5 7 5 3 3 2 2 1 3 5 2 2 3 1 2 3 3 3 5 3 2 2 5 3 7 9 8 10 8 6 6 7 7 5 2 4 9 9 7 8 8 7 7 7 6 8 8 8 8 8 9
23 20 19 17 15 16 13 7 5 7 6 3 7 7 8 8 9 9 5 4 4 2 5 5 5 1 1 2 4 6 6 4 4 3 2 2 5 5 7 2 2 5 5 4 1 2 3 3 1 5 2 1 5 3 2 4 4 3 1 4 4 7 7 5 9 8 5 4 7 9 7 1 3 9 9 8 9 9 8 9 9 8 8 7 7 8 8 8
23 20 18 15 14 16 10 6 10 12 5 6 7 7 6 7 7 6 4 4 2 1 2 5 3 1 2 1 2 6 6 2 4 1 1 2 4 5 5 4 2 4 2 1 1 1 2 1 1 3 3 3 4 2 1 3 2 4 4 5 5 4 5 5 7 6 5 5 5 9 8 2 4 8 9 9 10 10 10 10 10 9 8 8 8 8 8 8
23 19 17 13 10 11 9 9 14 11 6 8 8 6 6 7 7 4 4 2 1 1 2 3 4 1 5 1 2 7 5 1 1 1 2 2 5 4 6 5 3 4 3 1 2 1 4 4 1 3 3 2 3 1 1 2 1 3 7 6 4 4 3 6 6 5 5 4 3 6 6 4 5 6 8 11 11 11 12 12 12 11 9 9 8 9 8 7
22 19 16 12 7 7 8 9 12 9 8 8 7 7 7 7 6 3 3 3 1 1 1 2 1 3 5 3 4 5 3 1 1 2 1 4 4 5 7 5 8 7 2 1 3 1 3 3 5 5 1 1 4 0 1 4 2 4 5 6 4 5 6 5 5 5 4 4 4 3 3 5 5 2 6 10 10 11 9 7 7 9 10 10 8 8 8 6
20 18 15 11 6 6 8 8 7 7 8 8 8 8 7 5 4 3 3 3 1 1 0 3 1 2 3 6 6 5 2 2 1 0 3 3 5 4 3 1 6 7 2 3 2 3 2 1 4 6 2 2 4 2 0 5 5 2 3 5 5 4 5 5 5 4 4 4 5 4 7 8 4 3 5 6 6 7 4 1 3 9 11 10 10 8 7 6
19 16 13 10 7 7 9 6 4 8 9 9 10 8 6 4 3 3 2 2 1 2 1 3 3 4 6 7 3 3 2 1 1 3 5 4 5 3 1 3 3 3 2 3 2 2 2 4 3 2 1 4 4 1 2 5 6 4 4 4 2 2 4 4 4 4 4 3 2 4 9 10 5 3 5 5 4 5 4 5 6 8 12 6 9 9 8 7
16 15 11 8 8 8 8 7 9 10 10 10 9 5 4 3 3 3 2 2 3 3 4 3 5 6 7 6 5 3 1 1 1 4 5 3 4 3 2 2 3 1 2 1 0 2 3 4 1 1 2 4 7 3 3 4 5 5 4 3 2 0 2 3 3 1 3 2 1 4 5 6 6 4 7 7 6 8 9 9 10 11 6 6 8 10 7 7
14 13 11 7 7 8 8 8 9 10 10 10 6 4 3 4 2 1 3 2 1 2 4 5 6 8 9 7 5 2 1 2 1 3 3 2 4 2 2 2 3 2 1 2 2 3 3 2 1 2 4 4 7 4 1 2 3 4 4 3 1 1 2 4 3 1 3 3 1 4 4 5 6 3 9 10 10 11 10 8 7 7 7 10 11 11 8 6
12 10 9 7 7 10 9 8 8 8 9 7 4 2 2 5 4 4 4 3 3 3 4 3 6 9 8 6 3 0 3 3 1 2 1 3 5 2 3 3 1 3 2 2 2 2 3 2 3 3 3 4 6 5 4 4 3 4 4 2 2 1 3 4 4 3 3 5 1 4 2 3 4 2 4 7 10 10 8 7 8 7 10 13 11 9 7 6
10 8 7 7 7 9 8 7 6 6 7 5 3 1 1 4 3 3 3 3 3 5 5 3 6 8 7 5 2 1 3 1 1 2 3 4 3 2 3 4 3 2 4 3 2 2 5 2 2 2 4 2 7 4 4 6 4 2 3 3 3 3 3 4 4 5 4 6 4 2 4 3 3 4 3 3 5 7 10 11 9 7 9 10 10 7 5 8
10 8 6 7 7 7 6 6 4 4 5 5 4 3 3 4 3 3 3 4 4 6 8 7 6 6 6 4 3 2 3 2 2 2 4 4 1 2 2 4 4 3 4 3 2 3 4 3 1 2 3 5 8 4 3 3 2 2 2 4 2 4 5 4 4 4 4 5 5 4 4 2 4 4 3 3 5 4 6 7 5 5 3 5 8 5 6 9
13 8 9 10 7 6 4 3 3 4 5 4 4 5 5 4 5 5 4 4 4 4 6 6 2 4 6 1 3 4 6 4 3 3 4 3 3 0 1 3 3 4 6 3 3 2 2 3 3 4 5 6 4 5 7 6 5 4 1 1 3 3 5 3 3 4 4 5 5 4 4 2 2 1 2 3 4 2 2 3 4 7 5 5 6 5 8 9
14 8 11 10 4 6 4 2 3 5 5 4 6 7 6 4 6 5 4 3 3 3 5 5 1 3 6 3 2 3 6 5 3 3 4 2 2 1 2 1 2 1 4 5 4 3 3 4 2 4 8 3 4 4 7 7 8 7 4 3 3 3 3 1 2 4 4 5 5 5 6 4 3 3 2 3 3 3 3 4 5 8 8 7 7 8 10 9
10 6 5 4 6 5 4 3 3 5 4 5 6 3 3 3 5 6 4 3 3 4 4 5 4 4 5 5 7 3 2 4 1 2 4 2 2 2 1 1 2 4 2 4 5 3 4 4 1 3 6 1 2 4 5 5 8 7 7 6 4 4 3 2 3 3 3 4 5 6 6 3 5 3 3 3 3 0 2 3 3 5 7 7 7 8 8 7
8 5 0 7 6 4 3 3 4 5 5 5 6 3 2 2 5 7 4 4 4 3 3 6 6 5 5 6 7 5 5 6 4 4 4 3 4 3 2 1 1 4 3 3 5 3 2 3 2 3 4 1 3 5 3 3 1 2 3 5 4 3 3 4 4 4 4 5 5 5 5 2 2 2 4 6 5 4 3 4 4 5 7 7 7 7 6 7
6 5 2 6 3 3 3 4 4 4 5 5 6 4 2 4 3 3 3 2 4 2 1 5 6 5 6 7 7 6 5 6 4 3 4 2 2 1 2 3 3 5 4 4 4 2 1 2 4 4 3 3 5 3 2 5 3 1 1 3 4 2 2 4 5 3 4 5 5 5 5 3 3 3 5 5 3 4 5 5 5 5 8 8 8 7 6 6
6 4 3 6 4 4 3 6 4 4 6 3 2 1 3 3 3 1 4 3 3 1 1 3 5 5 6 5 6 6 5 6 6 4 5 4 4 4 6 8 6 5 4 6 5 4 3 3 5 7 5 7 8 3 1 5 5 4 4 5 5 3 2 4 5 4 4 5 6 5 5 1 4 5 5 4 2 1 1 1 3 4 6 8 9 8 6 6
4 3 3 7 6 4 4 6 5 6 4 2 3 1 3 1 4 3 1 3 2 2 2 1 2 3 5 5 6 6 6 6 6 6 7 3 9 10 9 8 4 3 2 5 4 6 4 3 4 7 6 8 10 6 4 5 4 4 6 6 6 6 5 5 5 5 4 5 6 5 5 1 4 4 3 1 1 1 1 2 4 2 3 6 8 9 7 7
4 6 2 7 7 5 5 5 5 6 2 3 2 2 3 1 4 5 5 1 2 3 3 2 2 2 3 5 6 6 7 5 4 7 9 4 6 8 7 7 2 1 1 1 3 4 3 3 3 5 5 6 7 5 4 5 3 3 5 5 6 8 7 5 5 4 4 7 7 6 6 1 3 2 2 3 2 2 2 2 2 1 2 5 7 7 7 7
5 5 3 6 9 6 5 5 5 7 4 1 2 2 2 1 2 4 8 6 2 2 2 3 4 3 3 6 6 6 6 4 4 6 9 5 2 5 6 7 2 2 5 6 5 3 4 4 4 5 5 5 3 1 1 2 3 4 5 7 7 8 6 4 5 5 5 7 7 6 6 1 3 2 2 1 1 1 0 2 2 2 3 4 4 5 6 7
4 3 3 3 6 4 6 6 5 6 6 4 3 3 4 4 1 2 7 6 2 3 3 2 2 2 2 4 5 6 6 6 6 5 7 6 0 4 4 5 4 5 8 7 5 3 4 4 6 7 7 8 7 7 5 4 5 7 8 9 9 8 7 5 4 5 5 6 7 7 7 5 3 2 1 1 2 1 1 1 2 2 3 4 4 5 6 6
3 3 4 3 1 4 4 3 4 5 3 4 3 2 3 4 2 2 3 3 2 0 1 3 5 3 2 3 5 6 6 7 8 7 8 8 2 3 4 3 4 6 6 3 1 1 3 5 8 10 11 11 12 12 10 7 9 11 11 11 11 10 9 7 7 7 6 6 7 7 7 8 4 2 2 2 3 3 3 3 4 3 3 5 6 6 7 7
4 4 4 5 3 4 3 4 6 6 3 3 3 2 3 5 4 3 3 3 4 3 3 3 5 5 4 4 4 5 6 6 6 5 7 8 6 2 3 5 5 6 4 2 3 2 4 6 7 9 11 13 13 14 12 9 10 12 12 11 12 12 12 11 11 11 9 8 8 9 10 10 9 7 7 6 4 4 5 5 5 4 5 6 7 8 9 8
6 4 5 7 5 6 6 5 5 7 6 4 4 5 5 6 7 5 4 3 4 4 4 5 5 4 5 6 4 4 5 4 5 6 6 7 8 6 3 4 5 7 4 3 3 4 4 5 6 9 11 13 13 13 13 11 11 13 14 13 12 13 13 13 14 14 13 12 12 13 14 13 11 9 10 9 7 6 5 4 5 5 6 8 8 10 10 9
6 4 5 8 7 6 6 6 5 6 6 4 4 5 6 7 7 5 4 5 5 4 5 7 6 4 6 6 5 5 4 3 4 5 6 7 7 6 5 3 2 4 4 3 3 3 2 3 6 7 8 10 11 13 13 13 13 14 14 13 12 13 14 13 13 12 12 14 14 14 14 13 9 8 9 9 7 5 3 3 5 6 8 8 9 10 10 10
6 6 5 6 6 6 6 5 4 6 6 4 4 5 6 6 6 5 5 5 6 6 6 7 7 5 6 7 7 6 4 5 7 7 6 7 6 6 5 3 5 3 3 4 3 2 2 4 7 7 7 8 10 12 13 13 13 13 13 13 14 13 12 12 11 10 11 12 12 12 11 9 6 6 8 8 5 4 4 4 5 7 7 8 8 9 8 7
9 7 5 5 6 6 6 6 5 5 4 4 3 2 4 5 5 5 4 4 7 7 3 3 4 3 5 7 7 6 5 5 8 8 7 8 9 8 7 6 6 5 4 4 4 3 4 5 5 6 6 7 10 13 11 9 9 9 8 9 11 11 10 11 11 11 12 10 9 9 8 7 7 7 7 7 4 3 4 5 6 6 6 7 8 8 8 7
Wind_Direction
9 7 6 8 7 6 6 3 1 358 357 359 2 4 8 18 27 31 30 21 10 2 358 355 345 335 328 316 311 311 307 307 292 255 230 271 44 76 107 164 265 239 207 228 248 254 234 222 228 228 227 225 224 231 238 235 234 238 225 240 250 250 255 252 251 244 257 266 100 76 315 289 297 94 108 85 77 70 67 68 76 81 80 86 90 87 85 77
8 7 6 7 7 7 6 5 4 1 359 359 3 5 6 14 22 25 24 10 355 350 347 341 331 329 321 316 319 318 319 307 276 260 195 82 93 104 106 153 229 216 223 255 261 257 237 225 217 212 223 227 216 216 226 225 220 231 238 234 240 253 259 257 262 251 240 272 350 65 31 44 348 9 61 66 63 61 62 61 76 84 80 85 90 83 89 86
8 7 6 6 7 6 5 6 4 3 0 359 4 3 1 4 5 10 9 357 348 337 332 330 324 323 319 322 327 328 328 298 266 253 81 97 126 128 156 189 239 250 256 268 278 280 270 276 257 212 223 235 217 212 214 209 204 219 241 241 240 243 258 265 265 268 265 307 336 78 35 28 28 18 57 72 63 59 58 56 67 75 75 77 79 78 81 83
8 6 5 5 6 5 4 4 2 3 1 358 359 358 353 344 344 348 349 344 333 327 326 326 321 317 319 326 332 336 315 281 274 77 92 127 129 149 189 232 274 280 274 275 281 282 282 285 271 230 235 244 222 214 216 209 199 210 224 241 252 240 264 270 255 295 4 325 335 78 172 117 66 48 59 76 70 66 62 56 59 71 80 82 83 82 77 76
8 6 6 5 5 3 3 2 1 360 359 357 352 351 341 317 328 328 327 328 320 323 321 321 319 317 324 329 333 333 298 277 81 87 113 131 136 174 252 265 282 287 277 280 279 269 266 264 260 247 241 253 239 217 217 216 208 228 228 235 256 264 287 290 231 274 294 258 332 26 127 73 71 59 57 71 76 78 77 70 69 78 85 83 86 87 78 70
9 8 7 6 3 2 1 360 358 356 357 356 346 342 331 306 309 309 312 314 309 315 321 323 320 324 332 333 337 306 277 346 94 111 113 123 160 206 275 279 285 279 270 279 276 253 250 248 244 244 235 246 247 229 222 221 208 231 237 230 246 272 294 325 61 218 89 151 282 17 30 51 76 73 66 75 83 94 95 86 82 82 85 85 86 85 77 66
10 9 8 7 2 1 360 358 355 353 354 353 344 330 318 294 288 298 302 300 305 313 320 324 323 331 337 333 332 251 250 95 109 122 110 140 177 260 274 290 277 268 265 270 269 247 240 244 238 239 236 237 243 232 222 221 210 223 248 246 242 256 272 316 46 110 106 222 273 16 11 45 74 79 79 79 83 92 88 80 81 79 82 87 84 80 77 72
10 10 9 8 3 359 358 357 354 351 351 351 344 321 307 279 277 292 294 291 301 307 319 326 326 331 334 332 296 253 244 93 114 131 123 170 181 267 285 289 262 257 265 267 276 266 244 247 246 243 246 242 251 243 221 219 214 217 251 253 224 220 253 318 45 85 151 228 292 18 22 67 85 91 83 84 88 93 87 77 78 76 77 77 73 78 87 89
11 10 9 7 3 358 358 357 355 352 349 349 344 325 312 268 269 280 284 288 297 306 320 322 324 328 333 324 277 277 78 90 118 142 145 181 229 257 271 280 264 255 266 267 272 275 263 262 263 285 282 273 285 270 199 193 222 213 243 252 200 227 239 55 64 114 177 209 313 127 82 85 104 96 81 93 99 92 87 77 74 73 70 67 67 73 87 103
11 10 8 6 1 357 357 356 356 353 350 350 347 335 317 264 268 276 280 289 296 306 316 317 323 329 325 281 273 304 99 115 131 143 150 195 226 243 247 266 278 266 277 271 244 279 309 310 312 321 299 299 304 281 155 144 265 242 235 236 236 242 221 100 161 161 180 176 166 168 104 82 96 91 88 101 100 92 86 78 72 71 70 68 70 79 97 110
10 9 7 5 358 353 353 354 355 354 352 353 352 347 332 263 262 271 277 292 300 308 315 316 320 328 314 275 284 8 134 185 130 145 153 203 229 241 257 271 289 281 296 283 238 294 307 316 323 296 299 332 312 281 327 13 294 265 238 204 209 258 87 164 215 175 197 169 162 207 115 76 66 93 108 101 102 94 83 77 69 63 69 69 63 74 95 94
8 7 5 3 357 350 346 350 353 355 355 354 359 359 335 264 257 271 282 296 306 309 313 314 319 331 311 278 312 47 307 188 64 198 164 211 234 232 271 281 268 283 297 294 312 52 289 301 295 277 320 320 295 308 352 13 280 280 280 192 216 276 183 223 212 165 212 179 159 236 137 103 51 96 116 104 100 94 84 78 70 57 62 74 71 74 80 82
5 4 3 360 356 348 343 347 351 356 356 355 4 0 320 262 257 274 287 298 304 308 312 312 316 319 296 303 51 28 283 121 93 201 180 206 237 224 241 261 257 280 285 303 341 27 288 280 268 288 333 295 315 4 322 339 269 293 311 205 217 232 197 214 197 166 214 179 137 248 188 134 70 101 126 123 108 99 94 88 85 72 62 67 73 78 79 80
2 2 1 358 354 348 343 345 350 356 355 352 2 355 319 267 270 284 291 298 299 303 307 305 309 302 275 11 66 50 217 186 186 192 209 238 246 221 177 201 236 259 267 283 301 301 282 271 254 275 284 279 344 356 270 238 240 276 283 241 224 222 175 160 134 159 200 119 106 275 261 141 80 100 125 126 113 96 90 97 102 97 100 112 95 88 89 86
359 359 359 356 352 347 344 344 350 356 353 348 355 332 298 265 277 282 283 290 287 294 303 303 301 279 262 171 105 96 159 224 219 157 316 312 281 236 175 211 220 223 272 266 273 281 259 251 247 249 178 160 289 280 247 246 231 223 251 277 244 227 160 143 135 220 226 133 145 253 291 121 99 91 116 124 119 103 80 72 95 104 123 124 118 111 111 110
357 356 357 355 351 346 344 344 348 354 349 338 337 311 284 270 278 277 277 279 281 291 299 295 261 223 265 21 120 139 187 229 331 138 281 330 325 334 158 251 243 197 255 240 255 275 250 245 255 265 231 151 228 233 189 205 231 208 205 253 254 229 153 157 180 223 258 192 167 236 312 105 119 92 104 128 130 123 129 156 122 113 107 120 128 127 125 124
356 355 356 354 350 346 345 344 347 351 346 326 313 280 264 269 271 269 272 274 283 293 279 277 271 236 243 70 138 172 183 117 360 243 221 23 330 331 289 258 230 191 213 208 227 236 233 235 239 266 299 209 200 177 193 195 208 222 201 208 279 289 178 205 223 199 272 288 217 224 208 56 81 107 116 149 149 139 148 160 145 126 266 183 148 132 127 121
355 353 355 354 351 347 343 345 348 349 341 316 304 298 295 289 281 276 276 273 276 281 263 260 279 283 153 132 161 307 40 65 310 270 215 245 284 264 277 291 259 207 214 188 205 223 213 208 220 226 202 218 203 160 171 186 185 218 224 176 332 308 203 191 223 181 218 238 238 246 220 76 69 147 168 179 181 156 147 150 153 161 196 198 155 137 130 120
354 353 354 353 351 347 344 348 349 348 342 319 320 328 309 291 285 276 264 250 231 264 282 250 263 300 89 67 44 78 49 281 259 273 245 238 263 224 232 280 159 238 244 208 188 204 207 209 215 244 261 216 203 172 176 182 191 218 250 148 246 287 212 203 249 161 204 245 244 257 244 92 103 207 195 184 186 158 135 141 153 158 171 174 140 132 127 121
354 353 352 353 352 348 346 348 351 350 342 329 324 313 291 278 271 252 246 239 238 312 330 342 317 6 74 17 11 78 232 235 231 254 300 289 270 251 230 224 223 228 240 236 209 187 207 247 196 248 287 255 215 213 187 162 164 207 212 160 212 263 243 281 283 165 175 242 239 227 188 173 239 234 215 192 167 158 149 147 152 155 158 145 127 127 125 125
354 351 351 352 351 349 347 351 357 349 336 325 304 290 314 11 343 328 320 268 240 319 322 357 322 3 49 334 331 326 253 236 228 126 90 278 269 257 217 214 241 236 221 233 271 93 220 282 288 239 263 292 323 277 175 160 160 168 179 181 204 233 208 223 259 224 182 202 219 206 170 178 227 229 213 195 174 178 181 166 173 178 156 133 135 137 131 128
352 350 351 350 350 350 346 351 359 350 336 307 274 273 12 21 344 338 335 292 210 220 238 312 259 183 88 306 307 316 271 255 222 135 69 309 282 271 230 209 244 242 247 232 104 48 330 265 267 259 261 319 343 334 232 200 177 166 179 191 202 214 199 188 215 239 224 220 218 209 206 193 209 219 209 200 193 190 191 188 194 181 159 157 154 143 139 135
351 350 350 349 349 346 337 341 348 343 336 309 286 323 359 358 337 339 326 286 257 208 212 225 256 194 111 223 216 288 278 287 218 94 46 315 298 307 297 289 269 246 34 262 237 73 270 250 271 13 353 269 271 215 251 232 180 184 189 199 215 207 192 182 205 217 221 248 233 194 248 246 201 206 204 206 206 199 196 195 197 179 170 175 154 146 152 139
350 349 349 347 343 342 337 319 306 310 308 303 340 8 346 342 345 346 335 288 265 206 161 53 283 328 37 323 290 272 280 317 342 35 33 304 303 331 301 308 306 264 213 277 14 135 203 229 63 33 313 295 313 220 247 254 200 195 191 219 227 174 190 202 195 202 199 218 224 187 215 238 213 207 200 208 210 198 193 192 195 178 144 120 121 134 142 134
349 347 349 346 337 339 330 308 303 317 287 299 2 4 338 344 354 346 332 293 272 174 119 125 222 129 43 288 239 270 294 236 256 6 17 313 315 324 300 332 33 298 286 106 63 186 182 80 46 236 267 342 294 247 256 284 272 168 164 273 247 171 205 199 170 194 204 197 202 196 208 231 242 225 200 198 207 196 189 195 206 183 137 123 126 128 126 128
348 346 348 344 336 336 327 314 341 324 299 359 12 348 338 345 351 346 325 274 262 174 144 179 205 125 57 240 237 289 301 186 149 351 354 323 309 290 293 330 125 281 325 57 316 257 117 80 302 275 299 219 259 279 271 268 321 11 202 275 273 192 198 177 169 193 218 211 192 199 219 243 274 242 213 200 205 203 198 199 216 205 162 157 160 147 145 142
347 344 345 342 338 338 336 336 330 315 316 29 5 333 340 343 341 343 299 254 231 253 205 161 123 50 223 267 304 290 305 119 136 242 147 16 301 257 276 279 213 256 289 86 259 301 8 347 232 275 277 228 259 324 204 220 340 341 272 268 280 223 171 178 205 203 209 232 203 205 224 220 221 224 211 213 211 209 210 204 220 223 181 174 176 160 161 154
344 342 341 340 335 331 331 325 323 334 15 8 344 330 343 338 324 308 270 289 96 215 285 89 82 214 224 227 288 276 309 15 228 183 120 334 300 266 277 285 326 12 88 188 291 301 283 293 311 272 271 282 291 47 82 274 208 212 248 262 263 254 220 201 221 229 225 250 229 209 227 241 242 214 193 213 219 216 219 208 213 221 196 180 178 164 160 151
341 340 338 336 327 314 321 316 312 341 11 349 338 338 335 324 310 285 253 303 28 184 351 39 111 193 222 237 217 246 289 237 286 18 176 224 222 265 296 339 341 340 80 235 294 228 241 321 343 299 278 289 280 235 125 286 271 181 230 264 242 238 248 225 228 241 226 250 260 259 282 267 281 297 190 204 223 224 221 218 229 238 214 187 175 164 154 143
338 336 336 331 322 318 314 289 282 334 2 346 337 331 316 299 287 259 249 282 320 97 272 254 260 99 247 252 209 199 240 220 144 354 272 242 182 222 272 357 309 297 230 224 239 113 107 3 303 279 296 337 303 354 355 272 296 309 246 254 237 241 262 242 236 239 219 240 258 281 276 255 258 290 219 205 232 231 208 199 316 294 258 199 166 166 161 155
334 330 331 321 303 305 302 289 326 355 357 345 333 317 294 274 253 259 281 287 285 7 297 263 8 13 289 287 250 194 212 204 171 225 263 254 193 181 176 198 242 266 241 234 198 90 181 197 210 245 292 318 291 235 197 248 276 283 262 251 238 323 319 270 243 237 241 264 295 262 242 230 226 230 223 230 247 232 208 192 195 243 267 235 163 168 169 169
331 322 321 305 281 277 285 317 352 346 340 342 328 297 283 280 245 249 302 261 251 2 351 318 6 346 306 298 258 244 260 149 167 278 286 274 217 153 100 295 323 288 256 275 322 314 258 214 81 82 186 256 270 244 177 220 246 244 248 248 217 30 339 275 267 255 257 267 344 309 272 244 250 192 182 215 229 220 221 222 202 190 234 260 190 170 168 186
326 317 312 295 265 253 268 305 327 328 334 337 310 273 283 290 289 343 341 319 295 10 324 305 325 311 295 285 251 237 301 225 251 294 295 296 270 200 116 2 339 252 253 348 290 271 243 223 246 200 165 205 257 271 230 243 253 242 261 268 228 291 278 273 283 245 250 252 106 23 352 288 281 175 167 186 199 212 215 226 230 176 193 232 199 169 176 187
323 313 307 294 257 243 255 285 307 321 326 316 286 298 307 286 317 5 343 17 52 330 306 307 310 294 280 285 302 334 219 219 234 292 241 210 248 238 106 73 336 253 269 298 302 288 256 249 244 230 126 170 228 247 273 300 302 269 284 280 131 135 258 276 294 275 267 277 288 84 106 248 271 234 187 183 190 202 190 201 234 199 198 211 181 165 180 153
323 313 310 298 260 240 246 264 285 313 312 291 260 263 277 278 305 351 336 22 31 330 330 321 290 285 265 242 251 296 250 207 117 269 260 243 266 349 81 84 68 336 308 309 5 318 265 255 225 180 96 217 249 255 279 292 300 291 298 270 173 154 224 255 288 291 293 290 277 191 196 210 194 195 208 216 222 205 177 188 210 188 189 187 157 160 170 137
328 319 297 270 245 226 230 243 259 296 297 279 264 251 266 299 344 32 8 356 355 343 334 312 278 271 266 213 165 172 190 224 306 277 255 245 280 1 27 52 44 344 325 336 352 310 288 306 274 175 145 238 265 311 302 263 296 322 304 288 267 155 202 258 274 268 274 274 265 245 232 189 155 179 194 216 255 240 170 177 177 135 166 177 143 148 159 144
333 315 283 263 227 187 202 237 259 273 274 273 273 272 280 322 22 35 31 15 352 338 313 301 276 277 289 205 169 183 172 202 247 247 246 210 167 62 43 62 33 342 344 336 292 318 324 295 283 271 253 230 240 306 293 264 278 293 251 319 319 197 208 272 289 265 267 267 270 277 280 262 163 202 246 205 229 246 132 164 163 132 146 183 151 159 170 153
324 300 283 266 194 149 188 240 271 265 263 261 264 273 289 338 51 50 32 22 327 302 289 288 336 315 301 299 269 193 166 194 192 215 256 162 130 333 338 156 141 61 343 306 284 355 358 276 243 265 268 217 152 266 277 259 249 259 275 302 300 268 241 273 283 281 292 290 292 299 301 318 86 120 212 191 207 231 190 199 189 151 159 178 169 181 179 159
298 278 276 209 147 138 185 222 263 258 251 261 265 271 294 319 77 77 37 5 307 295 299 304 328 309 289 311 323 331 217 257 245 254 269 132 134 283 304 266 132 109 14 316 301 344 339 292 240 242 258 206 146 236 256 243 215 226 275 283 256 255 261 266 271 274 280 283 292 304 309 351 85 127 174 123 102 202 217 237 214 160 166 172 169 187 189 172
277 272 209 128 129 147 177 231 259 250 241 261 275 264 260 283 86 79 42 11 320 295 325 331 330 316 311 320 312 304 299 301 322 315 293 141 151 179 147 185 110 74 43 325 302 313 297 280 284 255 253 241 232 232 257 295 226 177 282 284 274 286 303 287 272 259 265 275 288 303 308 342 74 126 141 129 136 152 182 242 236 171 170 176 171 181 197 185
281 282 160 124 132 167 191 251 242 244 251 258 272 277 345 14 52 96 98 37 299 264 5 324 305 303 320 324 307 301 304 290 274 275 278 244 177 200 87 83 62 42 15 300 300 335 315 302 302 285 272 259 254 247 310 307 316 3 265 276 299 350 4 284 269 272 293 301 309 309 308 339 39 70 96 112 143 159 169 203 219 190 178 181 171 166 189 181
265 285 149 150 179 176 223 266 246 250 262 276 311 308 48 9 296 220 149 173 252 222 111 295 292 298 297 298 303 310 309 280 265 262 277 321 40 77 90 81 66 45 357 302 328 16 347 316 304 290 280 269 268 271 269 267 281 288 256 262 291 304 268 270 283 321 329 313 308 298 291 345 71 69 62 59 40 32 74 186 228 213 178 173 161 156 181 173
260 309 139 160 184 187 243 272 261 251 251 34 345 312 77 4 286 307 225 189 200 265 255 247 303 293 278 291 299 303 322 304 287 297 290 327 70 84 97 91 74 52 358 296 339 20 335 271 267 279 276 265 261 246 210 207 233 273 255 250 267 269 271 282 299 322 317 295 294 289 281 275 101 92 79 115 162 120 338 279 260 237 162 162 156 158 181 165
312 305 212 170 181 198 241 259 272 277 289 54 306 276 86 1 301 311 294 267 146 239 278 332 316 262 264 324 326 313 334 331 295 308 299 293 92 103 115 110 105 330 37 351 17 18 305 274 273 285 281 255 233 210 200 190 186 276 276 268 261 258 265 276 288 299 285 276 279 278 283 290 121 146 187 191 178 161 179 213 256 274 174 172 164 168 178 154
303 280 236 174 174 199 249 263 297 307 313 338 262 250 189 199 2 325 293 298 291 277 351 354 326 331 326 335 332 308 311 302 294 320 313 301 128 138 124 104 85 5 63 56 32 337 286 301 298 288 289 280 276 357 295 271 316 311 297 298 288 270 264 264 277 276 262 272 272 263 282 337 129 203 253 177 98 340 136 133 188 234 187 173 165 165 160 147
308 288 274 178 175 213 250 255 274 283 290 295 257 233 231 223 144 284 276 293 350 17 13 299 282 345 327 315 311 290 273 255 256 281 295 296 31 106 86 88 91 73 72 58 27 328 287 291 281 278 286 290 304 319 303 288 302 298 293 296 290 279 273 263 262 264 269 287 280 266 287 294 197 191 298 35 111 230 272 189 223 222 162 156 152 151 158 167
297 314 334 358 246 244 244 255 275 261 285 334 312 231 234 247 226 170 254 296 343 94 204 263 280 281 234 262 283 280 282 268 249 249 274 282 276 98 100 129 127 105 102 95 52 291 277 268 265 270 273 278 289 299 303 306 297 288 286 284 278 279 282 271 257 260 273 285 276 275 296 297 275 227 232 231 186 201 223 215 226 225 178 171 164 173 197 195
312 316 354 6 311 274 308 345 328 305 308 340 310 286 267 257 239 187 205 280 291 249 188 215 274 292 284 275 276 283 297 292 273 274 282 278 284 321 147 173 159 134 144 206 194 213 270 270 272 277 275 277 281 280 282 286 284 281 281 279 276 277 278 276 270 267 265 262 264 279 288 284 284 286 278 280 277 256 248 226 213 212 207 197 186 197 213 199
338 317 347 355 319 291 311 323 316 304 296 282 273 279 276 267 262 242 210 215 251 255 246 243 255 277 279 273 272 279 291 301 308 319 315 296 303 314 271 216 153 141 168 245 214 212 255 264 275 285 282 281 283 281 280 279 275 271 265 261 263 268 269 269 269 267 267 266 266 275 278 274 277 287 290 291 288 276 261 217 197 208 218 216 210 211 212 199
354 324 340 339 313 293 298 297 284 278 273 250 244 267 267 258 266 266 232 218 233 236 252 269 276 277 274 275 272 263 272 297 295 302 309 300 299 296 281 305 71 143 207 261 260 224 227 264 280 285 282 280 280 281 280 273 267 263 259 258 260 264 264 263 264 264 264 267 269 271 274 275 278 282 280 274 267 264 252 203 200 216 222 223 226 228 221 205
351 319 317 308 306 316 308 290 275 273 273 250 233 262 274 268 271 273 257 252 259 253 249 263 275 283 278 272 265 266 286 297 282 281 285 282 279 271 270 330 8 337 257 259 271 220 189 269 286 280 276 276 271 268 266 267 270 270 270 273 271 267 263 258 259 259 258 264 271 270 268 272 277 275 272 267 249 225 220 224 229 229 227 228 234 244 243 220
346 326 314 292 297 310 297 278 266 267 291 323 319 278 267 281 295 300 303 278 261 268 302 297 267 261 268 263 262 280 299 288 281 288 286 274 273 272 263 264 278 284 273 265 271 252 235 259 279 279 280 282 278 277 278 279 278 272 267 269 272 276 278 269 256 251 253 257 262 263 264 274 283 284 281 276 257 223 230 241 237 227 228 232 232 237 240 235
Height
807 805 804 802 801 800 798 797 795 794 793 792 790 790 789 789 788 788 788 787 787 786 786 786 785 785 784 783 782 782 781 780 780 780 779 777 776 776 777 777 776 776 776 775 775 774 772 771 770 769 770 770 770 769 767 763 760 765 775 784 785 779 770 758 752 747 747 742 737 740 739 746 748 741 740 748 760 770 776 781 785 789 793 797 798 800 799 798
807 806 804 802 801 800 799 797 796 794 793 792 791 790 789 789 789 788 788 787 787 787 787 786 786 785 784 783 783 782 781 780 780 778 777 777 776 777 777 777 777 776 776 776 774 771 769 768 766 766 769 769 767 766 767 762 761 769 774 780 780 772 759 746 741 736 738 739 736 741 742 746 749 746 746 759 772 774 781 788 787 791 796 799 799 799 799 799
808 806 804 803 801 800 799 797 796 794 793 792 791 791 790 789 789 788 788 788 787 787 787 786 786 785 784 784 783 782 782 780 779 777 777 777 777 777 777 778 777 777 776 776 774 770 767 765 762 763 768 769 764 762 766 761 760 767 771 778 773 761 753 741 736 733 734 738 739 744 746 748 750 751 756 767 779 783 789 792 790 795 799 801 801 798 797 797
808 806 804 803 802 800 799 798 796 795 794 792 791 791 790 790 789 789 788 788 788 787 787 786 786 785 784 784 783 783 781 782 779 777 778 777 778 778 778 778 777 777 777 775 773 770 767 765 762 762 767 769 761 759 763 760 760 764 768 775 763 751 752 741 733 733 735 741 744 746 750 752 752 756 764 770 784 793 793 793 794 797 800 801 801 799 797 797
808 807 805 803 802 801 799 798 797 795 794 792 792 791 790 790 789 789 788 788 788 787 787 786 786 785 784 784 784 783 783 787 782 777 779 778 779 778 778 778 778 777 776 775 772 769 767 765 763 764 768 769 762 760 762 756 756 764 763 764 756 750 752 740 731 736 739 745 749 750 752 754 756 766 773 776 790 798 795 794 795 796 798 799 799 799 800 799
809 807 805 804 802 801 800 798 797 796 794 793 792 791 790 790 789 789 789 788 788 787 787 786 785 785 785 784 783 783 786 788 780 777 780 779 779 778 778 778 777 776 775 775 770 767 767 764 766 768 768 768 764 761 760 752 753 765 762 755 752 750 752 742 738 742 743 750 755 755 753 752 764 778 780 783 792 796 793 792 793 794 796 798 799 801 803 804
809 807 806 804 802 802 800 799 797 796 794 793 791 790 790 790 790 789 789 788 788 787 787 786 785 784 784 783 783 783 782 780 776 778 779 778 779 778 778 777 776 776 774 773 768 765 764 765 767 766 766 767 763 758 756 751 751 762 763 754 750 750 750 746 745 748 748 755 755 753 756 759 773 784 785 788 792 792 792 790 791 794 795 798 801 804 808 810
809 808 806 804 803 802 800 799 797 796 794 792 791 790 790 790 790 789 788 788 788 787 787 786 785 784 784 784 783 781 778 776 776 778 778 778 779 778 778 777 775 775 773 770 765 762 762 765 764 761 765 763 756 752 749 752 754 760 762 753 749 752 750 747 750 753 753 756 754 755 763 768 777 783 789 795 795 793 792 792 793 795 796 798 802 807 812 815
810 808 806 805 803 802 801 799 798 796 794 792 791 790 790 790 790 789 789 788 787 787 787 786 786 784 784 783 782 782 778 775 777 778 778 779 779 778 778 776 775 773 770 767 764 762 761 764 760 758 764 759 754 751 746 759 763 758 758 751 751 755 750 750 755 757 757 756 756 762 769 772 774 780 793 798 796 795 793 795 797 798 800 801 803 810 816 818
810 808 807 805 804 802 801 800 798 796 794 792 791 791 791 790 790 789 789 788 787 787 787 786 786 784 785 783 782 784 778 774 776 777 777 779 778 778 777 775 773 771 767 765 763 762 761 762 757 755 759 758 758 755 751 764 763 752 752 751 754 756 750 754 759 758 760 759 759 766 772 773 771 782 799 800 795 795 796 799 800 801 804 805 805 809 816 819
811 809 807 806 804 803 801 800 798 796 794 792 791 791 791 790 790 789 789 788 787 786 786 785 785 785 784 782 782 783 776 773 775 775 777 778 777 777 775 773 772 770 767 764 763 762 763 762 757 757 763 761 761 759 757 761 758 751 750 753 758 757 757 760 761 760 760 762 761 763 771 775 775 789 800 797 795 796 799 802 803 804 807 807 807 808 813 815
811 809 807 806 804 803 801 800 798 796 794 793 792 791 791 791 790 789 789 788 786 786 786 785 785 784 783 781 780 778 774 773 775 774 776 776 776 775 774 773 772 771 768 764 762 763 765 763 760 763 766 764 764 767 764 758 758 755 752 762 767 764 767 765 760 762 763 765 762 763 778 786 786 795 800 796 797 799 801 805 806 806 807 808 809 809 811 813
811 809 808 806 804 803 801 800 798 796 794 793 793 791 791 791 790 790 789 787 786 786 785 784 784 783 785 782 775 775 774 773 774 774 774 774 774 773 772 773 772 771 769 766 764 764 766 764 763 764 762 765 769 769 766 760 763 765 761 769 774 774 775 765 759 762 765 765 760 769 791 796 791 795 800 797 796 800 805 808 809 809 808 809 809 810 813 814
812 810 808 806 804 803 801 800 798 796 795 794 793 792 792 791 790 790 788 787 786 785 785 784 783 784 785 781 774 774 774 773 774 773 772 772 771 770 771 772 771 771 769 768 767 765 766 763 762 763 761 766 768 766 768 768 770 773 774 773 775 782 780 766 762 767 771 768 761 774 794 797 792 793 798 799 798 800 806 809 811 812 810 810 810 811 815 817
812 810 808 806 804 803 801 800 798 796 795 794 793 793 792 791 791 789 788 787 785 785 784 782 782 783 782 778 773 774 774 773 772 771 772 771 768 767 767 769 769 769 769 769 767 765 765 763 764 766 764 764 767 772 778 779 776 776 786 789 781 783 781 771 769 771 775 772 766 778 795 796 794 792 793 799 802 804 809 811 812 814 812 812 812 814 817 819
812 810 808 806 804 802 801 800 798 796 795 794 793 793 792 791 790 789 787 785 785 785 784 783 780 780 784 778 773 773 773 772 771 771 772 770 769 767 767 768 766 768 769 767 767 766 764 763 764 764 762 765 771 777 781 787 787 781 788 799 790 786 788 783 776 771 772 774 772 781 795 797 793 791 790 795 803 808 813 814 812 814 812 810 812 814 817 819
812 810 808 806 804 802 801 799 798 796 795 794 793 792 791 791 789 788 786 785 786 784 784 782 775 776 780 774 773 774 770 770 771 770 770 769 770 769 767 766 764 766 766 765 767 765 764 765 766 765 764 769 771 776 790 801 802 793 789 794 793 789 793 794 785 775 774 777 780 782 788 794 792 791 792 791 796 805 812 816 815 816 817 812 810 813 816 819
812 810 808 806 803 802 800 799 798 796 795 794 793 793 792 791 789 788 785 785 785 784 785 780 776 785 785 774 774 774 769 770 771 769 769 769 769 768 767 764 762 764 765 767 768 765 766 766 766 770 771 773 772 777 799 806 800 800 795 794 802 798 794 797 790 781 780 782 786 786 787 793 794 792 793 790 790 796 803 810 815 819 822 816 809 812 815 818
812 810 808 805 803 802 800 799 798 796 795 794 794 793 792 790 789 787 784 784 785 786 787 780 777 787 786 774 770 770 770 771 771 768 767 767 767 767 766 764 762 766 769 771 770 766 767 769 770 778 779 776 775 777 789 792 788 793 792 796 810 807 794 792 787 780 781 785 787 788 789 794 796 794 792 790 788 791 796 802 807 812 814 811 808 812 815 818
812 810 808 805 804 802 800 799 798 796 795 795 794 793 792 791 791 789 783 780 780 779 779 775 772 775 777 772 769 770 772 770 768 766 766 766 766 765 763 762 763 767 769 772 771 763 764 775 779 785 784 775 771 771 774 780 783 786 792 799 807 807 801 794 786 779 780 789 792 788 791 795 796 795 791 789 790 793 796 799 802 803 805 807 809 813 815 818
812 810 807 806 804 802 801 799 798 797 796 795 795 793 791 790 794 793 785 780 775 772 774 772 770 773 774 773 769 770 771 768 765 763 765 765 763 766 764 761 768 771 767 766 768 763 767 782 784 779 777 769 766 767 769 777 783 787 794 802 805 805 803 796 789 782 778 789 793 786 791 797 796 794 790 788 791 795 795 798 800 800 802 806 810 813 814 816
813 810 808 806 804 802 801 799 798 797 796 795 794 791 787 788 792 790 788 787 778 771 773 772 770 772 771 772 770 769 772 771 769 764 764 764 764 767 763 760 770 772 765 765 773 781 786 788 780 769 767 767 768 769 771 775 780 787 792 799 805 799 795 794 789 783 780 786 790 787 792 797 793 791 789 788 790 792 791 793 795 796 800 804 808 812 814 815
813 810 808 806 804 803 801 800 799 796 795 794 792 790 789 790 790 786 788 791 783 772 771 772 772 771 771 772 770 770 774 773 772 767 764 767 766 764 763 765 769 768 768 771 777 793 801 787 772 767 767 770 772 771 773 774 778 785 789 796 797 786 788 797 792 786 784 786 788 791 796 795 791 791 790 788 788 788 787 789 789 791 796 799 802 808 811 814
813 810 809 806 804 804 801 800 798 797 796 793 791 792 792 791 790 789 788 790 786 774 768 770 770 771 772 772 770 772 774 770 771 769 765 769 768 765 765 765 767 770 771 772 775 788 794 779 767 770 771 771 775 775 774 777 779 778 780 786 785 780 785 792 789 785 785 787 786 792 806 805 796 796 795 789 787 788 787 789 790 790 793 796 800 805 809 812
812 811 809 806 805 803 802 800 797 796 795 792 793 793 793 793 790 791 791 795 793 776 770 773 771 771 771 771 772 770 770 770 769 769 766 767 769 770 769 763 769 776 771 769 776 784 783 772 768 773 774 773 777 777 775 778 781 778 776 776 776 779 780 780 784 787 794 800 789 792 818 824 807 798 796 792 790 790 790 792 793 793 794 799 803 806 809 812
813 811 809 807 806 803 802 799 797 797 794 793 795 794 794 794 792 792 794 804 803 781 775 777 774 775 773 772 770 766 774 775 767 766 767 768 767 769 773 767 768 775 770 768 776 779 776 771 771 775 775 777 779 778 775 776 787 792 782 771 771 773 776 779 783 790 803 805 789 786 812 832 826 807 794 792 793 792 792 794 795 793 795 800 803 806 809 811
813 811 809 808 806 804 802 799 798 796 794 796 796 795 796 793 793 794 799 818 813 784 776 776 773 777 774 771 769 773 786 779 767 767 766 768 767 765 775 773 769 770 765 772 785 782 775 774 775 776 776 779 781 781 775 771 788 799 782 771 773 772 777 782 784 791 796 794 791 787 793 819 830 810 793 792 795 796 794 795 796 793 794 799 801 804 807 808
813 811 809 808 806 806 804 802 800 795 796 798 796 796 796 794 795 794 809 833 813 779 776 775 771 773 770 768 770 775 780 773 777 777 764 767 769 766 775 772 768 771 764 776 795 787 776 778 779 777 778 784 784 779 773 771 784 789 776 771 774 773 777 779 783 790 786 793 810 800 790 813 820 798 790 795 797 799 796 794 795 792 793 797 799 802 804 805
812 810 809 807 806 806 804 804 802 798 799 798 797 798 796 795 796 797 818 832 800 775 779 776 772 774 770 771 773 774 772 771 780 776 762 767 769 768 775 770 769 775 769 773 787 783 776 776 776 776 781 785 781 773 770 774 779 777 772 773 773 773 776 777 783 788 788 804 818 805 799 818 822 804 798 801 801 799 796 794 796 794 792 794 798 800 802 804
812 810 809 807 806 806 805 804 801 800 800 798 799 798 796 797 801 814 834 825 793 782 782 775 775 778 775 776 776 774 774 774 774 771 767 768 767 766 769 768 770 774 772 772 776 777 775 773 774 775 778 778 774 771 771 773 773 771 773 776 776 777 776 778 781 784 800 817 813 806 807 816 825 818 802 798 797 793 794 798 803 805 797 792 795 799 801 804
811 809 809 807 806 806 804 802 800 801 800 800 800 797 798 802 806 827 835 808 790 790 783 778 779 778 777 779 780 776 774 775 772 774 776 771 770 771 772 775 775 777 780 778 778 777 776 778 777 773 772 773 774 774 773 771 770 773 777 778 787 797 795 792 789 790 813 826 812 807 808 810 823 819 800 792 790 788 793 797 804 809 804 796 795 797 800 802
810 809 808 807 806 805 805 802 801 802 800 800 800 797 806 817 818 823 815 795 799 803 790 788 786 782 782 781 781 777 775 778 776 776 778 775 775 774 777 783 781 790 796 789 787 787 781 778 776 773 772 773 777 779 776 774 772 775 779 783 800 819 823 819 813 815 831 829 809 801 805 809 810 802 795 792 788 789 791 792 795 798 802 803 797 795 799 800
809 807 806 806 805 804 804 803 802 803 801 801 801 798 811 830 824 809 798 795 806 803 791 791 788 785 786 783 781 776 777 782 778 776 776 776 777 773 775 778 777 791 800 792 793 796 791 782 774 777 777 773 777 785 789 785 778 779 782 789 807 823 835 837 827 827 835 823 802 797 806 814 805 791 789 790 787 787 785 785 788 790 798 805 797 794 798 798
808 806 806 804 804 804 803 804 803 802 801 800 802 807 823 834 818 801 798 798 799 794 790 792 791 789 787 786 783 776 780 783 776 777 779 778 781 778 777 780 777 781 787 790 793 795 803 801 784 779 780 775 775 779 785 783 779 780 775 783 807 819 831 837 826 824 827 814 802 805 813 819 812 796 784 780 780 782 783 784 786 789 795 797 793 794 797 799
807 805 805 803 803 803 802 804 802 802 803 800 805 819 831 828 810 803 804 798 795 795 792 790 792 795 791 784 781 776 780 785 778 778 782 779 782 781 780 782 780 781 786 796 798 792 800 801 780 773 775 776 777 772 770 777 785 781 771 781 801 805 809 817 814 811 814 815 811 809 808 803 798 790 778 775 776 776 781 783 783 788 790 789 792 796 798 801
806 805 804 802 802 802 802 803 802 802 802 801 810 821 820 809 800 801 802 797 798 800 800 798 795 799 794 784 784 780 779 784 782 783 783 779 781 782 782 782 781 783 787 796 801 795 800 798 778 772 777 774 775 772 768 779 789 784 783 792 790 783 790 805 810 803 807 823 816 800 799 794 791 790 779 775 778 775 777 780 781 788 790 789 793 797 799 803
807 805 803 800 799 801 802 802 802 802 801 803 815 816 803 795 794 796 797 799 800 799 806 810 800 797 796 789 788 784 780 783 784 786 785 780 783 784 782 783 783 784 784 789 794 790 797 803 784 776 783 774 769 774 771 772 778 784 792 791 780 778 784 795 812 812 813 824 809 792 796 795 799 803 788 778 782 780 779 781 783 788 793 794 797 799 800 802
807 805 802 798 798 800 801 802 801 801 801 806 814 809 796 793 794 796 798 799 801 801 807 811 801 796 797 794 788 780 781 787 784 784 785 784 788 785 781 784 784 783 782 785 790 786 791 804 791 777 782 775 767 779 784 774 771 778 783 778 781 798 801 799 813 820 822 826 813 797 793 790 798 804 792 786 787 783 782 783 784 787 792 796 798 799 799 801
808 806 801 796 797 799 800 801 800 800 804 810 812 807 799 794 792 795 798 799 801 803 806 807 801 798 796 795 791 782 781 784 781 782 785 787 792 786 779 782 784 784 783 784 790 788 789 805 802 781 773 775 775 784 792 784 774 775 777 773 778 791 797 798 803 807 818 827 820 808 800 795 793 789 785 787 787 784 785 785 785 788 789 792 796 797 798 800
806 805 801 796 798 800 799 800 800 801 807 807 803 799 795 792 791 794 797 799 801 803 806 807 805 803 799 795 793 787 784 783 781 784 784 782 786 786 780 781 784 785 785 785 789 790 789 801 807 788 773 780 787 785 784 783 782 787 793 792 788 785 788 795 794 792 802 813 815 814 812 800 784 775 778 784 784 784 785 786 787 788 788 790 793 795 797 799
806 805 801 796 799 799 799 801 802 801 802 799 796 794 792 793 794 796 797 800 800 799 801 806 807 805 804 801 796 790 788 787 784 786 784 777 780 786 784 780 784 788 790 791 792 793 795 801 806 798 788 790 787 774 772 777 781 789 799 802 798 794 801 814 810 794 791 801 808 814 818 803 779 771 776 779 780 780 780 783 785 785 787 789 790 793 795 797
808 806 800 797 799 798 799 803 800 796 796 794 794 794 795 796 796 795 796 798 799 796 797 802 804 803 804 804 798 793 792 790 785 784 784 780 780 785 785 782 785 789 794 797 794 793 796 801 808 806 794 786 777 767 770 776 776 781 789 792 791 790 799 815 818 805 799 803 801 804 813 803 780 773 778 778 778 778 777 780 782 782 784 787 788 791 794 795
806 803 798 797 798 797 802 806 799 794 793 792 791 791 794 797 797 795 795 796 798 798 799 800 801 803 803 800 797 796 796 794 789 786 786 784 784 787 786 786 788 790 795 800 798 797 800 803 809 807 792 779 771 766 768 772 778 786 786 782 786 788 789 796 801 803 807 809 803 807 814 802 782 777 779 779 778 779 780 780 780 781 783 785 788 790 792 794
806 802 797 797 798 797 804 808 802 796 793 793 795 794 795 798 799 798 797 796 797 799 801 800 799 801 800 798 799 800 802 804 798 791 787 785 788 789 786 787 790 790 796 801 801 804 808 806 808 812 807 793 784 782 783 780 782 790 787 780 782 783 784 790 793 799 809 808 803 812 814 798 784 779 777 778 779 779 781 780 780 782 782 785 787 789 791 794
810 804 795 794 796 798 801 800 798 799 797 797 800 799 799 800 800 801 800 797 794 795 801 802 799 799 799 801 805 803 803 807 805 798 791 786 787 788 787 789 790 790 796 800 798 802 809 809 808 817 821 812 804 806 806 797 793 792 788 784 783 781 785 794 799 807 813 805 798 805 806 793 784 781 779 779 780 781 781 780 781 781 782 784 786 788 791 794
813 807 799 795 794 796 797 793 794 799 798 799 802 800 802 805 802 800 800 799 796 795 801 803 798 800 804 805 810 808 801 801 802 800 796 791 790 790 789 791 792 794 798 799 799 803 809 810 807 811 815 809 805 804 798 794 799 800 795 791 787 784 784 791 802 809 808 803 800 797 793 791 789 788 786 783 782 784 783 782 782 781 782 784 786 789 791 794
813 809 804 804 803 799 795 793 794 797 796 799 802 799 802 806 804 803 802 800 798 797 802 804 799 801 806 807 810 810 803 799 798 798 798 794 790 790 791 791 794 797 798 798 800 805 812 814 808 806 807 801 797 794 788 791 799 800 797 795 791 787 786 791 801 801 798 806 809 793 785 792 791 785 785 783 781 782 782 782 783 782 782 784 786 789 791 792
814 810 804 807 811 805 800 800 799 797 796 799 800 798 802 805 805 807 806 802 799 798 803 809 805 802 803 803 808 810 807 805 803 800 799 795 791 793 794 794 795 798 799 799 800 804 814 817 809 806 806 800 794 792 788 792 797 795 794 795 792 791 792 794 796 792 791 803 805 791 788 793 787 779 779 778 777 778 778 778 779 780 781 782 784 787 788 790
816 814 807 807 809 805 802 801 800 800 800 800 801 800 802 805 803 802 801 803 806 800 801 809 807 802 801 800 803 809 810 812 813 808 803 801 799 800 800 799 798 798 799 802 801 801 811 816 809 808 809 802 796 791 786 788 794 794 792 790 790 790 791 792 791 788 787 792 791 787 789 788 781 777 775 773 772 773 772 774 776 779 781 781 782 783 784 787
822 822 818 815 811 803 800 799 799 802 799 798 803 802 799 801 803 799 796 801 808 804 801 806 805 801 802 800 802 807 806 807 812 810 805 806 806 803 802 801 801 800 801 803 802 801 811 816 808 807 812 807 798 793 790 790 792 791 787 783 783 786 788 788 788 786 787 789 785 785 789 785 776 771 771 770 769 769 771 774 776 778 779 779 780 780 780 782
825 824 822 823 817 807 803 801 799 801 800 797 801 802 798 799 799 798 797 795 799 801 800 802 803 802 803 803 803 805 802 801 805 803 801 805 804 801 800 799 800 804 805 805 804 804 812 817 810 810 817 811 798 793 791 787 786 787 787 785 783 785 785 785 784 784 786 788 787 788 791 785 773 768 768 767 767 770 774 775 776 776 776 777 779 779 778 779
825 824 821 823 821 812 806 802 798 802 805 801 799 799 801 800 796 799 804 798 792 793 796 797 801 805 808 809 807 804 801 800 800 798 796 798 796 794 795 795 796 801 805 805 806 805 809 815 815 816 821 813 798 791 787 787 796 798 789 782 781 781 780 779 778 778 778 780 786 790 786 777 770 768 769 768 768 771 774 774 774 775 774 775 776 777 777 778